User: anonymous   Login
Location: Fort Wayne
(41.1310°N, 85.1290°W)
Time: 19:46:44
(UTC-04:00)
Language:

Helios 1B - Orbit

View from above orbital plane
View from above orbital plane
View from above satellite
View from above satellite

Ground track
Ground track

The orbit data is extracted from the following two-line orbital elements,

1 25977U 99064A   15088.18377762  .00002132  00000-0  28054-3 0  9991
2 25977 098.1417 175.3333 0002065 063.8421 351.6927 14.81263273823906
Epoch (UTC): 29 March 2015 04:24:38
Eccentricity: 0.0002065
inclination: 98.1417°
perigee height: 624 km
apogee height: 627 km
right ascension of ascending node: 175.3333°
argument of perigee: 63.8421°
revolutions per day: 14.81263273
mean anomaly at epoch: 351.6927°
orbit number at epoch: 82390

The dashed part of the orbit path shows where the satellite is in the earth's shadow,  

DLR